Погода в Симаве

Турция     39°05′21″N   28°58′39″E
темп.,
°C
ветер,
м/с
пор.,
м/с
влажн.,
%
обл.,
%
осадки,
мм/ч
давл.,
гПа
погр.,
м
9 мая, вс
вс900:00+13с33800 0.0 101440
03:00+10с469455 0.0 1017255
06:00+10ссв487860 0.0 1018657
09:00+13ссв566512 0.0 1019899
12:00+16ссв56423 0.0 10191321
15:00+17св88325 0.0 10191426
18:00+15св78352 0.0 10191074
21:00+9ссв44515 0.0 102175
10 мая, пн
пн1000:00+7ссв34585 0.0 102263
03:00+5ссв33581 0.0 102151
06:00+5ссв33595 0.0 102145
09:00+11ссв34385 0.0 1019420
12:00+17ссв44270 0.0 1017978
15:00+20св45230 0.0 10151372
18:00+19ссв55260 0.0 10141175
21:00+12ссв33410 0.0 101629
11 мая, вт
вт1100:00+9ссв33550 0.0 101633
03:00+8ссв33540 0.0 101525
06:00+7ссв33510 0.0 101525
09:00+14ссв33360 0.0 1014352
12:00+20св33240 0.0 10121163
15:00+22ссв22215 0.0 10111761
18:00+22с22235 0.0 10091849
21:00+14с33495 0.0 101129
12 мая, ср
ср1200:00+12ссв32540 0.0 101221
03:00+11св11575 0.0 101010
06:00+10ююз1157100 0.0 101010
09:00+17ююз22443 0.0 1010382
12:00+21юз45310 0.0 10091256
15:00+23зюз562327 0.0 10091619
18:00+21з5629100 0.0 10091115
21:00+15юз114437 0.0 101011
13 мая, чт
чт1300:00+13ю22471 0.0 101011
03:00+12ю22510 0.0 101012
06:00+11юв22530 0.0 101013
09:00+18ю34370 0.0 1010512
12:00+22ююз57289 0.0 10101460
15:00+23юз782633 0.0 10091728
18:00+22зюз57295 0.0 10091565
21:00+15зсз224228 0.0 101111